Other Public Products
Issued by NWS Charleston, SC

Current Version | Previous Version | Text Only | Print | Product List | Glossary Off
Versions: 1 2 3 4 5 6 7 8 9 10 11 12 13 14 15 16 17 18 19 20 21 22 23 24 25 26 27 28 29 30 31 32 33 34 35 36 37 38 39 40 41 42 43 44 45 46 47 48 49 50

000
FPUS82 KCHS 261412
OPUCHS

TEST...KCHS/KSAV Gateway Observations...TEST
National Weather Service Charleston SC
1000 AM EDT SAT MAY 26 2018

NOTE: "fair" indicates few or no clouds below 12,000 feet with no
significant weather and/or obstructions to visibility.

SCZ050-WAZ558-NCZ071-TXZ119-213-PAZ071-DCZ001-FLZ074-172-MI076-
NYZ176-178-MAZ016-IL014-TNZ027-NJZ106-GAZ044-MD014-261500-

...Gateway Observations for Charleston International...

CITY           SKY/WX    TMP DP  RH WIND       PRES   REMARKS
Chas Airport   FAIR      83  72  69 S12       30.02S
Seattle        PTSUNNY   52  44  74 SE7       30.13R
Charlotte      PTSUNNY   75  72  88 SW10      30.00S FOG
Dallas DFW     MOSUNNY   77  69  76 S3        29.84R
Dallas Love    MOSUNNY   78  68  71 CALM      29.85R
Philladelphia  PTSUNNY   76  67  73 SW7       29.87S
Wash National  FAIR      79  69  71 S9        29.89F
Baltimore      FAIR      82  70  66 W10       29.87S
Miami          LGT RAIN  77  75  93 E12       29.94R
Detroit        CLOUDY    71  59  65 SW6       29.83R
Newark         PTSUNNY   82  68  62 SW6       29.83S
Laguardia      FAIR      83  65  54 W5        29.82S
J F K          FAIR      78  69  73 SW15      29.84S
Boston Logan   PTSUNNY   82  57  42 W8        29.75S
Ft. Lauderdale LGT RAIN  78  76  93 SE17      29.94R
Chicago O`Hare PTSUNNY   75  60  59 W6        29.78R
Chicago Midway PTSUNNY   76  66  71 SW5       29.79R
Houston Bush   PTSUNNY   81  76  84 SW10      29.87R
Houston Hobby  PTSUNNY   80  77  90 W9        29.88R
Nashville      FAIR      75  67  76 S8        29.95S
Atlanta        CLOUDY    71  68  90 S3        30.01R

$$

GAZ044-118-TXZ119-213-NCZ071-DCZ001-MDZ014-506-PAZ021-071-NJZ106-
NYZ176-178-MAZ106-OHZ011-021-055-MIZ076-KYZ091-ILZ014-INZ047-
MNZ060-ONZ431-261500-

...Gateway Observations for Savannah International...

CITY           SKY/WX    TMP DP  RH WIND       PRES   REMARKS
Savannah Arpt  PTSUNNY   80  70  71 S10       30.02R
Atlanta        CLOUDY    71  68  90 S3        30.01R
Charlotte      PTSUNNY   75  72  88 SW10      30.00S FOG
Dallas DFW     MOSUNNY   77  69  76 S3        29.84R
Houston Bush   PTSUNNY   81  76  84 SW10      29.87R
Wash National  FAIR      79  69  71 S9        29.89F
Wash Dulles    FAIR      81  69  67 SW8       29.89S
Baltimore      FAIR      82  70  66 W10       29.87S
Philadelphia   PTSUNNY   76  67  73 SW7       29.87S
Newark         PTSUNNY   82  68  62 SW6       29.83S
Laguardia      FAIR      83  65  54 W5        29.82S
J F K          FAIR      78  69  73 SW15      29.84S
Boston         PTSUNNY   82  57  42 W8        29.75S
Pittsburg      PTSUNNY   78  63  59 W6        29.89S
Akron          CLOUDY    75  61  61 SW8       29.89R
Cleveland      CLOUDY    74  61  63 SW6       29.87R
Cincinnati     PTSUNNY   73  65  75 SW8       29.90R
Columbus       FAIR      74  65  74 MISG      29.88S
Detroit        CLOUDY    71  59  65 SW6       29.83R
Chicago O`Hare PTSUNNY   75  60  59 W6        29.78R
Minneapolis    FAIR      76  63  64 SW6       29.72S
Indianapolis   LGT RAIN  72  68  87 SW10      29.86R FOG
Toronto Canada PTSUNNY   75  59  57 CALM      29.80S

$$




USA.gov is the U.S. government's official web portal to all federal, state and local government web resources and services.